Location: Croisilles
(50.1998°N, 2.8793°E)
Time: 02:22:33
(UTC+00:00)

YAOGAN 1 - Pass Details

Date: 21 January 2021
Orbit: 618 x 620 km, 97.9° (Epoch: 24 February)

Event Time Altitude Azimuth Distance (km) Brightness Sun altitude
Rises 17:11:29 0° 126° (SE) 2,892 5.7 -7.6°
Reaches altitude 10° 17:14:02 10° 111° (ESE) 1,990 4.7 -8.0°
Maximum altitude 17:17:21 22° 61° (ENE) 1,378 3.7 -8.5°
Drops below altitude 10° 17:20:39 10° 12° (NNE) 2,001 4.9 -9.0°
Sets 17:23:14 0° 357° (N) 2,912 5.8 -9.4°
